Regional Weather Roundup
Issued by NWS Sterling, VA

Home | Current Version | Previous Version | Graphics & Text | Print | Product List | Glossary On
Versions: 1 2 3 4 5 6 7 8 9 10 11 12 13 14 15 16 17 18 19 20 21 22 23 24 25 26 27 28 29 30 31 32 33 34 35 36 37 38 39 40 41 42 43 44 45 46 47 48 49 50
000
ASUS41 KLWX 211710
RWRLWX

REGIONAL WEATHER ROUNDUP
NATIONAL WEATHER SERVICE BALTIMORE MD/WASHINGTON DC
100 PM EDT SUN SEP 21 2014

Note: "FAIR" indicates few or no clouds below 12,000 feet
with no significant weather and/or obstructions to visibility.
 TC=TEMPERATURE CELSIUS

 * =Non NWS site. Station does not report precipitation (e.g. rain,
    snow, etc.), thunder, or fog.

DCZ001-MDZ009-015-VAZ040>042-051-053>054-211800-
WASHINGTON METRO

CITY           SKY/WX    TMP DP  RH WIND       PRES   REMARKS
WASHINGTON NAT PTSUNNY   79  60  52 SE3       29.79F
DULLES         MOSUNNY   79  60  52 S6        29.78F
ANDREWS AFB    MOSUNNY   78  61  55 VRB3      29.79F
QUANTICO       MOSUNNY   75  63  66 S6        29.80F
COLLEGE PARK*  MOSUNNY   79  61  53 CALM      29.77F
LEESBURG*      SUNNY     82  63  51 S7        29.79F
MANASSAS*      SUNNY     81  63  54 SE8       29.79F
GAITHERSBURG*  SUNNY     79  64  61 SE7       29.82F

$$

MDZ006>007-011-014-211800-
BALTIMORE METRO

CITY           SKY/WX    TMP DP  RH WIND       PRES   REMARKS
BWI AIRPORT    PTSUNNY   78  58  49 CALM      29.78F
MD SCIENCE CTR   N/A     77  62  59 MISG      29.78F
MARTIN STATE   PTSUNNY   75  64  69 NW5       29.80F
ANNAPOLIS      MOSUNNY   75  63  66 NW6       29.78F
FORT MEADE*    MOSUNNY   77  61  57 CALM      29.80F

$$

MDZ012-015-019>023-211800-
MARYLAND EASTERN SHORE

CITY           SKY/WX    TMP DP  RH WIND       PRES   REMARKS
OCEAN CITY     CLOUDY    75  69  81 NE9       29.75F
SALISBURY      CLOUDY    79  69  71 NW8       29.76F
BAY BRIDGE AP*   N/A     72  63  73 N7        29.79F
CAMBRIDGE*     PTSUNNY   73  66  78 NW8       29.78F
EASTON*        PTSUNNY   75  73  94 NW6       29.84F

$$

MDZ017>025-211800-
SOUTHERN MARYLAND

CITY           SKY/WX    TMP DP  RH WIND       PRES   REMARKS
PATUXENT RIVER PTSUNNY   79  64  60 NW12      29.79F
ST INIGOES     PTSUNNY   80  63  55 VRB6      29.78F
LEONARDTOWN*   PTSUNNY   77  59  53 NE3       29.80F

$$

MDZ003>005-211800-
NORTH CENTRAL MARYLAND

CITY           SKY/WX    TMP DP  RH WIND       PRES   REMARKS
FREDERICK*     SUNNY     84  64  51 SW5       29.81F
HAGERSTOWN APT SUNNY     80  60  50 S8        29.78F
WESTMINSTER*     N/A     81  64  57 CALM      29.78F

$$

MDZ501>502-211800-
WESTERN MARYLAND

CITY           SKY/WX    TMP DP  RH WIND       PRES   REMARKS
OAKLAND*       CLOUDY    68  68 100 W10G18    29.86F
CUMBERLAND*    MOSUNNY   84  61  45 SE3       29.79F

$$

VAZ025>031-211800-
SHENANDOAH VALLEY

CITY           SKY/WX    TMP DP  RH WIND       PRES   REMARKS
WINCHESTER*    MOSUNNY   82  57  42 W3        29.78F
STAUNTON*      SUNNY     83  57  40 CALM      29.83F

$$

WVZ021-048>050-054>055-211800-
EASTERN WEST VIRGINIA PANHANDLE

CITY           SKY/WX    TMP DP  RH WIND       PRES   REMARKS
MARTINSBURG    SUNNY     83  59  44 VRB3      29.78F
PETERSBURG*    MOSUNNY   83  55  37 W7        29.79F

$$

VAZ036>039-050-211800-
CENTRAL FOOTHILLS

CITY           SKY/WX    TMP DP  RH WIND       PRES   REMARKS
CHARLOTTESVILL SUNNY     83  61  47 MISG      29.79F
ORANGE*        SUNNY     82  61  47 SE5       29.81F

$$

VAZ055>057-211800-
NORTH AND CENTRAL PIEDMONT

CITY           SKY/WX    TMP DP  RH WIND       PRES   REMARKS
FREDERICKSBRG* MOSUNNY   81  61  50 CALM      29.78F
STAFFORD*      SUNNY     78  64  62 E6        29.83F

$$

NCZ024-NYZ072-PAZ021-071-VAZ022-071-211800-
OTHER REGIONAL OBSERVATIONS

CITY           SKY/WX    TMP DP  RH WIND       PRES   REMARKS
NEW YORK CITY  CLOUDY    71  67  87 VRB5      29.81F FOG
PHILADELPHIA   CLOUDY    74  66  76 CALM      29.80F
PITTSBURGH     PTSUNNY   74  64  71 SW13G21   29.74F
ROANOKE        MOSUNNY   79  62  56 SW10      29.88F
RICHMOND       MOSUNNY   82  60  47 CALM      29.80F
RALEIGH        MOSUNNY   81  59  47 W8        29.87F

$$

ANZ530>537-211800-
MARINE OBSERVATIONS

STATION/POSITION TIME  TEMP    WIND        PRES
                       AIR SEA DIR/SP/G
                 (UTC) (F)     (DEG/KT/KT) (MB)
THOMAS PT LIGHT  1700   69 74   50/  5/  6 1009.6F
BALT KEY BRIDGE  1700   72     310/  2/  2 1008.6F
COVE POINT       1700   70     360/  8/ 12 1008.9F
LEWISETTA        1700   74 74  350/  5/  7 1008.4F
SOLOMONS ISLAND  1700      76                N/A
PINEY POINT      1700          310/  9/ 11   N/A

$$



USA.gov is the U.S. government's official web portal to all federal, state and local government web resources and services.